Regional Weather Roundup
Issued by NWS

Home | Current Version | Previous Version | Text Only | Print | Product List | Glossary Off
Versions: 1 2 3 4 5 6 7 8 9 10 11 12 13 14 15 16 17 18 19 20 21 22 23 24 25 26 27 28 29 30 31 32 33 34 35 36 37 38 39 40 41 42 43 44 45 46 47 48 49 50

000
ASUS43 KFSD 100710
RWRSD

WEATHER ROUNDUP FOR SOUTH DAKOTA
NATIONAL WEATHER SERVICE SIOUX FALLS SD
100 AM CST WED FEB 10 2016

NOTE: "FAIR" INDICATES FEW OR NO CLOUDS BELOW 12,000 FEET WITH NO
SIGNIFICANT WEATHER AND/OR OBSTRUCTIONS TO VISIBILITY.


SDZ001>005-009-010-012>017-100800-
NORTHWEST AND NORTH CENTRAL SOUTH DAKOTA

CITY           SKY/WX    TMP DP  RH WIND       PRES   REMARKS
BUFFALO          N/A     35  26  69 W14       29.87F WCI  26
FAITH            N/A     30  24  78 SW6       29.94F WCI  24
MOBRIDGE       CLOUDY    31  23  72 SE6       29.96F WCI  25
$$

SDZ012>016-024>037-041>051-057-063-072>074-100800-
SOUTHWEST AND SOUTH CENTRAL SOUTH DAKOTA

CITY           SKY/WX    TMP DP  RH WIND       PRES   REMARKS
RAPID CTY ARPT CLEAR     28  24  85 NW3       29.98F
PIERRE         CLOUDY    31  25  78 CALM      29.99F
CUSTER         CLEAR     42  23  46 W16G28    30.04F
ELLSWORTH AFB  CLEAR     32  26  78 W5        29.96F WCI  27
PHILIP         CLOUDY    27  24  89 W5        29.97F WCI  22
PINE RIDGE     CLEAR     33  26  75 W5        30.04F WCI  29
SPEARFISH      FAIR      45  25  45 W12       30.01F
WINNER         CLOUDY    35  26  69 S5        30.01F
$$

SDZ004>011-016>023-039-040-100800-
NORTHEAST SOUTH DAKOTA

CITY           SKY/WX    TMP DP  RH WIND       PRES   REMARKS
ABERDEEN       CLOUDY    20  11  68 E12       30.09F WCI   8
WATERTOWN      CLOUDY    15   7  70 E8        30.07F WCI   4
BROOKINGS      MOCLDY    16  10  77 E7        30.09S WCI   6
SISSETON         N/A     12   6  77 E6        30.12F WCI   3
$$

SDZ017-020-022-023-036>040-048>070-100800-
SOUTHEAST SOUTH DAKOTA

CITY           SKY/WX    TMP DP  RH WIND       PRES   REMARKS
SIOUX FALLS    CLOUDY    20  12  71 S5        30.11F WCI  13
HURON          CLOUDY    26  19  74 SE6       30.06F WCI  19
CHAMBERLAIN    CLOUDY    29  24  81 CALM      30.02F
MITCHELL       CLOUDY    27  20  75 SE8       30.07F WCI  19
YANKTON        CLOUDY    21  16  79 E5        30.08F WCI  15
$$

ABBREVIATIONS USED IN REMARKS
   TC - TEMPERATURE IN CELSIUS
  WCI - WIND CHILL INDEX
   HX - HEAT INDEX
  VSB - VISIBILITY




USA.gov is the U.S. government's official web portal to all federal, state and local government web resources and services.